Weather History for Westerly, RI

Change the Weather History Date:

Wednesday, February 26, 2014

  Actual Average (KGON) Record (KGON)
Temperature  
Mean Temperature 22 °F -  
Max Temperature 30 °F 39 °F 57 °F (1976)
Min Temperature 15 °F 23 °F 3 °F (1990)
Degree Days  
Heating Degree Days 42    
Moisture  
Dew Point 7 °F    
Average Humidity 53    
Maximum Humidity 78    
Minimum Humidity 33    
Precipitation  
Precipitation 0.00 in - - ()
Sea Level Pressure  
Sea Level Pressure 29.88 in    
Wind  
Wind Speed 6 mph (WNW)    
Max Wind Speed 15 mph    
Max Gust Speed 25 mph    
Visibility 10 miles    
Events      
Averages and records for this station are not official NWS values.
T = Trace of Precipitation, MM = Missing Value Source: NWS Daily Summary

Daily Weather History Graph

Daily Weather History Graph

Search for Another Location

Airport:

Trip Planner

Search our weather history database for the weather conditions in past years. The results will help you decide how hot, cold, wet, or windy it might be!

Date:

Astronomy

Feb. 26, 2014 Rise Set
Actual Time 6:26 AM EST 5:34 PM EST
Civil Twilight 5:58 AM EST 6:02 PM EST
Nautical Twilight 5:26 AM EST 6:34 PM EST
Astronomical Twilight 4:54 AM EST 7:06 PM EST
Moon 4:11 AM EST (2/26) 2:44 PM EST (2/26)
Length of Visible Light 12h 03m
Length of Day
11h 08m
Waning Crescent, 10% of the Moon is Illuminated
Feb 26
Waning Crescent
Mar 1
New
Mar 8
First Quarter
Mar 16
Full
Mar 23
Last Quarter

Hourly Weather History & Observations

Time (EST) Temp. Windchill Dew Point Humidity Pressure Visibility Wind Dir Wind Speed Gust Speed Precip Events Conditions
12:53 AM 19.9 °F 13.4 °F 6.1 °F 55% 29.97 in 10.0 mi NW 4.6 mph - N/A   Clear
1:53 AM 19.0 °F 13.9 °F 7.0 °F 59% 29.97 in 10.0 mi NW 3.5 mph - N/A   Clear
2:53 AM 17.1 °F - 7.0 °F 65% 29.97 in 10.0 mi Calm Calm - N/A   Clear
3:53 AM 15.1 °F - 8.1 °F 74% 29.95 in 10.0 mi Calm Calm - N/A   Clear
4:53 AM 16.0 °F - 9.0 °F 74% 29.93 in 10.0 mi Calm Calm - N/A   Clear
5:53 AM 17.1 °F - 10.0 °F 74% 29.93 in 10.0 mi Calm Calm - N/A   Clear
6:53 AM 18.0 °F - 12.0 °F 78% 29.90 in 10.0 mi Calm Calm - N/A   Scattered Clouds
7:53 AM 19.9 °F - 14.0 °F 78% 29.90 in 10.0 mi Calm Calm - N/A   Overcast
8:53 AM 27.0 °F 16.7 °F 12.9 °F 56% 29.89 in 10.0 mi WSW 11.5 mph 19.6 mph 0.00 in   Overcast
9:53 AM 28.0 °F 20.0 °F 8.1 °F 43% 29.89 in 10.0 mi West 8.1 mph 19.6 mph 0.00 in   Overcast
10:53 AM 28.0 °F 19.3 °F 9.0 °F 45% 29.90 in 10.0 mi West 9.2 mph 17.3 mph N/A   Overcast
11:53 AM 28.9 °F 17.7 °F 12.0 °F 49% 29.87 in 10.0 mi WSW 15.0 mph 25.3 mph N/A   Scattered Clouds
12:53 PM 30.0 °F 20.5 °F 15.1 °F 54% 29.83 in 10.0 mi WSW 11.5 mph 20.7 mph N/A   Scattered Clouds
1:53 PM 30.0 °F 19.5 °F 17.1 °F 59% 29.82 in 10.0 mi WSW 13.8 mph 21.9 mph N/A   Overcast
2:53 PM 28.9 °F 19.2 °F 18.0 °F 64% 29.79 in 10.0 mi SW 11.5 mph - N/A   Clear
3:53 PM 30.0 °F 22.4 °F 17.1 °F 59% 29.78 in 10.0 mi WSW 8.1 mph - N/A   Scattered Clouds
4:53 PM 28.9 °F 20.4 °F 9.0 °F 43% 29.79 in 10.0 mi WNW 9.2 mph - N/A   Mostly Cloudy
5:53 PM 28.0 °F 20.0 °F 1.9 °F 33% 29.80 in 10.0 mi NW 8.1 mph - N/A   Clear
6:53 PM 25.0 °F 15.5 °F 1.0 °F 36% 29.82 in 10.0 mi NW 9.2 mph 19.6 mph N/A   Clear
7:53 PM 23.0 °F 12.4 °F -2.0 °F 34% 29.84 in 10.0 mi NNW 10.4 mph - N/A   Clear
8:53 PM 21.0 °F 10.6 °F -4.0 °F 33% 29.87 in 10.0 mi NNW 9.2 mph - N/A   Clear
9:53 PM 19.0 °F 8.2 °F -5.1 °F 34% 29.89 in 10.0 mi NNW 9.2 mph - N/A   Clear
10:53 PM 18.0 °F 7.7 °F -5.1 °F 36% 29.90 in 10.0 mi NNW 8.1 mph - N/A   Clear
11:53 PM 16.0 °F 5.3 °F -6.0 °F 38% 29.89 in 10.0 mi NNW 8.1 mph - N/A   Clear